Weather in San Gimignano

Italy     43°28′07″N   11°02′34″E
temp.,
°C
wind,
m/s
gust,
m/s
humid.,
%
clouds,
%
prec.,
mm/h
press.,
hPa
HPBL,
m
11 may, tue
tue1123:00+15s1164100 0.0 101512
02:00+12sse22685 0.0 101415
05:00+12se337392 0.0 101329
08:00+14sse1176100 0.3 101293
11:00+15ne1282100 2.1 1013205
14:00+16se2883100 4.4 1011696
17:00+14s61192100 2.9 1010753
20:00+12sw279441 5.3 1010403
12 may, wed
wed1223:00+10s229460 0.0 101022
02:00+10s1192100 0.3 101011
05:00+9sse229187 0.0 100917
08:00+12ene118855 0.0 1009182
11:00+15wsw788085 0.9 10101013
14:00+16wsw8107172 1.4 10101199
17:00+15w10127016 0.1 10101256
20:00+12w713809 0.1 1010902
13 may, thu
thu1323:00+9w128612 0.0 101021
02:00+8sse33914 0.0 100936
05:00+7sse338916 0.0 100831
08:00+11sse347227 0.0 1007144
11:00+17w585650 0.0 10071827
14:00+19w794714 0.1 10062153
17:00+15wsw810610 0.0 10071239
20:00+12wnw49790 0.0 1008451
14 may, fri
fri1423:00+8sw018621 0.0 100928
02:00+7sse339162 0.0 101042
05:00+10ssw31081100 0.1 1009428
08:00+11sse3479100 0.3 1010209
11:00+18sw47476 0.0 10111783
14:00+18w3456100 0.0 10101605
17:00+17sse2365100 0.2 1009485
20:00+13s5109086 1.8 1010611
15 may, sat
sat1523:00+12sse3696100 2.4 1010254
02:00+12wnw019695 24.1 100824
05:00+10s009550 3.9 100813
08:00+12wnw1294100 3.9 1009243
11:00+15wnw2277100 0.7 1009753
14:00+17w337349 3.1 1009989
17:00+16wnw667238 1.9 10101156
20:00+13w59874 2.3 1012404